Zurück zum Katalog

STARLINK-11736

AktivKommunikationVLEO
NORAD 64317·PAYLOAD·🇺🇸 United States

Gestartet Jun 10, 2025 von Cape Canaveral Space Force Station

Loading…

Nächste Überflüge (nächste 24 Stunden)

TLE

AktuellSource: CelesTrak SupGP

Epoche: Sep 14, 2026, 14:33 UTC

1 64317C 25124A   26257.60673611  .00064604  00000+0  50208-3 0  2571
2 64317  43.0004 330.7804 0001496 256.9264  76.3752 15.70792213    11

Verfolge STARLINK-11736 in Echtzeit mit AllMySat

Download on the App Store